Location: Strohbehn Observatory
(42.4649°N, 93.8239°W)
Time: 17:40:22
(UTC-05:00)

Daily predictions for brighter satellites

Satellite Brightness Start Highest point End
(mag) Time Altitude Azimuth Time Altitude Azimuth Time Altitude Azimuth
Meteor 1-25 Rocket 4.4 20:26:13 10° S 20:32:05 88° E 20:37:55 10° N
Okean 2 Rocket 3.1 20:29:45 10° S 20:34:11 66° E 20:38:41 10° NNE
Envisat 3.4 20:30:50 10° SE 20:35:38 44° ENE 20:40:27 10° N
SJ-6B 3.9 20:36:28 10° S 20:40:24 49° W 20:44:26 10° NNW
Abrixas rocket 3.7 20:38:47 10° W 20:41:49 34° NNW 20:44:52 10° NE
USA 267 4.1 20:36:09 10° SSE 20:42:27 49° SW 20:48:47 10° WNW
Cosmos 2263 Rocket 3.0 20:45:40 10° N 20:50:51 35° ENE 20:55:53 11° ESE
Resurs 1-3 3.6 20:47:23 10° SSE 20:51:47 86° ENE 20:56:12 10° NNW
Cosmos 2322 Rocket 2.6 20:46:49 10° S 20:52:08 42° ESE 20:57:28 10° NE
Cosmos 44 Rocket 3.5 20:51:59 10° NW 20:56:44 70° WSW 21:01:31 10° SSE
Cosmos 1939 Rocket 3.1 20:56:52 10° SSE 21:00:43 50° ENE 21:04:33 10° N
Okean 1 3.9 20:57:14 10° NNW 21:01:11 61° W 21:05:06 10° S
SL-16 R/B 2.3 20:57:21 10° S 21:02:48 51° ESE 21:08:17 10° NE
Meteor 1-19 Rocket 4.3 20:59:31 10° N 21:05:25 72° E 21:11:12 10° SSE
Cosmos 1633 3.5 21:02:58 10° SSW 21:06:30 52° W 21:10:05 10° N
ATLAS 2AS CENTAUR R/B 3.4 20:59:42 10° S 21:06:38 39° ESE 21:13:57 10° NE
Cosmos 1536 3.4 21:03:00 10° SSE 21:06:45 36° E 21:10:30 10° NNE
Lacrosse 5 rocket 1.8 21:04:27 10° WNW 21:08:01 48° SW 21:11:32 11° SSE
Cosmos 1452 Rocket 3.7 21:03:55 10° SSW 21:09:12 77° WNW 21:14:31 10° NNE
Cosmos 1850 Rocket 4.2 21:05:51 10° NNW 21:11:08 58° ENE 21:15:44 13° SE
YAOGAN 6 2.9 21:08:45 13° SE 21:11:37 44° ENE 21:15:00 10° N
Cosmos 1420 Rocket 3.9 21:07:15 10° SSW 21:12:25 80° ESE 21:17:37 10° NNE
NOSS 3-1 (A) 4.4 21:07:59 10° WSW 21:13:39 50° NW 21:20:03 10° NNE
Cosmos 839 Rocket 4.2 21:10:33 10° SW 21:16:48 79° WNW 21:23:07 10° NNE
NOSS 2-3 (E) 4.0 21:12:46 10° SSW 21:17:16 52° ESE 21:22:27 10° NE
S3M 4.0 21:12:59 10° N 21:19:16 89° W 21:25:37 10° S
Okean 1 Rocket 3.6 21:15:27 11° SSE 21:19:17 36° E 21:23:18 10° NNE
Helios 1B rocket 2.9 21:15:32 10° NNE 21:19:24 38° E 21:23:14 10° SSE
Cosmos 1553 Rocket 4.1 21:15:32 10° N 21:21:42 79° W 21:27:46 10° S
Cosmos 1607 4.3 21:15:40 10° NNW 21:22:00 55° NE 21:26:39 19° ESE
Resurs 01 Rocket 3.0 21:18:49 10° SSW 21:23:00 40° W 21:27:12 10° NNW
Cosmos 1300 Rocket 3.5 21:19:49 10° S 21:24:03 62° E 21:28:19 10° NNE
Tiangong 1 0.6 21:22:30 10° W 21:25:17 83° SSW 21:26:22 33° ESE
Cosmos 2360 Rocket 2.9 21:21:19 10° SSE 21:26:13 32° ESE 21:31:08 10° NE
Cosmos 1980 Rocket 3.8 21:22:11 10° SW 21:27:22 37° WNW 21:32:34 10° N
Cosmos 2315 Rocket 4.4 21:21:48 10° N 21:27:43 43° ENE 21:31:52 19° SE
Cosmos 2266 Rocket 3.9 21:22:20 10° S 21:28:16 63° E 21:34:14 10° NNE
BREEZE-M DEB (TANK) 1.7 21:27:45 10° WSW 21:31:02 61° NNW 21:32:24 18° NE
Cosmos 1025 Rocket 3.7 21:27:19 10° N 21:31:15 35° ENE 21:32:56 25° ESE
Meteor 1-5 Rocket 4.2 21:26:32 10° S 21:31:44 55° E 21:36:54 10° NNE
SeaSat 1 2.7 21:28:27 10° NNE 21:33:23 72° WNW 21:38:17 10° SW
Cosmos 220 Rocket 4.4 21:29:43 10° N 21:33:52 46° ENE 21:35:52 27° SE
Cosmos 2151 Rocket 4.4 21:31:45 10° SSW 21:36:01 53° W 21:40:21 10° N
SPOT 5 4.0 21:35:22 22° ESE 21:37:09 27° ENE 21:41:07 10° N
Meteor 2-4 Rocket 3.8 21:34:53 10° NNW 21:40:27 83° W 21:45:55 11° S
Lacrosse 5 2.0 21:36:58 10° SSW 21:41:52 51° SE 21:46:47 10° NE
NOAA 11 4.2 21:41:12 21° SSE 21:44:52 66° ENE 21:50:20 10° N
CZ-4B DEB 2.3 21:48:19 57° SSE 21:48:49 85° ENE 21:51:41 10° N
USA 245 4.4 21:47:46 29° ESE 21:49:39 40° ENE 21:53:47 10° N
NOSS 2-3 (C) 3.9 21:46:11 10° SW 21:50:52 84° NW 21:56:24 10° NE
Atlas Centaur 2 3.7 21:48:48 10° WSW 21:55:27 29° SSW 21:58:01 23° SSE
Okean 2 3.5 21:51:27 10° N 21:55:29 55° E 21:56:26 43° SE
Meteor 1-29 2.9 21:56:07 10° NNE 21:59:33 84° WNW 22:00:59 32° SSW
Helios 1A 3.7 21:58:19 18° S 22:01:17 51° W 22:05:27 10° NNW
Cosmos 1932 4.5 21:55:10 10° NNW 22:01:43 86° ENE 22:04:55 32° SE
SAR-Lupe-4 3.5 22:02:01 50° S 22:02:54 86° WSW 22:06:31 10° NNW
USA 238 DEB 4.1 21:56:05 10° NNW 22:03:02 54° NE 22:06:30 30° ESE
USA 238 4.1 21:56:11 10° NNW 22:03:08 54° NE 22:06:37 30° ESE
ERS-1 Rocket 2.9 22:06:24 31° S 22:08:54 84° WSW 22:13:57 10° NNW
MetOp-A 4.1 22:06:28 32° SSE 22:09:05 86° ENE 22:14:28 10° NNW
H-2A R/B 2.3 22:10:30 40° ESE 22:11:41 49° ENE 22:16:29 10° N
Cosmos 1892 Rocket 4.0 22:07:47 10° N 22:12:01 43° ENE 22:12:13 43° E
Abrixas rocket 3.8 22:16:08 10° WNW 22:19:04 29° N 22:19:37 27° NNE
SAR-Lupe-1 4.3 22:19:30 57° SW 22:19:54 62° WSW 22:23:28 10° NNW
Cosmos 1975 3.5 22:23:14 41° NE 22:23:14 41° NE 22:26:15 10° NNE
ATLAS 3B R/B 2.6 22:16:14 10° NNW 22:23:01 77° NE 22:25:20 43° SE
SL-08 RB Rocket 3.6 22:23:36 61° SE 22:24:20 78° ENE 22:28:54 10° N
SL-8 R/B 4.0 22:21:30 10° WNW 22:26:15 60° NNE 22:27:23 46° ENE
Cosmos 1544 Rocket 4.0 22:28:18 47° ENE 22:28:18 47° ENE 22:32:03 10° NNE
Cosmos 405 4.2 22:29:33 35° NNE 22:29:33 35° NNE 22:31:48 10° NNE
Meteor 1-12 Rocket 4.3 22:27:34 50° SE 22:28:25 56° E 22:33:55 10° NNE
Terra 2.8 22:29:05 32° ENE 22:29:05 32° ENE 22:33:12 10° N
ARGOS 3.1 22:27:17 42° S 22:29:11 78° WSW 22:34:35 10° NNW
Cosmos 2278 Rocket 3.7 22:29:46 10° N 22:34:10 22° NE 22:35:15 21° ENE
Cosmos 2263 Rocket 3.4 22:29:36 10° NW 22:34:46 37° WSW 22:37:35 23° SSW
Cosmos 1302 Rocket 3.9 22:35:29 63° SE 22:35:57 66° ESE 22:41:12 10° NNE
Cosmos 1486 Rocket 3.9 22:31:00 10° NNW 22:36:15 66° ENE 22:36:48 61° ESE
Cosmos 2322 Rocket 4.0 22:31:17 10° WSW 22:36:17 31° NW 22:41:19 10° N
Cosmos 2237 4.0 22:34:51 40° S 22:36:59 76° ESE 22:42:41 10° NNE
Cosmos 1455 Rocket 3.5 22:41:14 50° NE 22:41:14 50° NE 22:44:48 10° NNE
Cosmos 1844 Rocket 2.8 22:37:22 10° NNW 22:42:59 59° ENE 22:43:39 55° E
SL-16 R/B 4.3 22:42:30 10° WSW 22:47:11 26° NW 22:51:55 10° N
Nadezhda 1 Rocket 4.1 22:41:10 10° N 22:47:24 59° E 22:48:14 55° ESE
IGS 5A 4.5 22:55:06 38° NNE 22:55:06 38° NNE 22:58:01 10° N
Cosmos 2322 4.1 22:50:29 10° SW 22:56:03 60° WNW 23:01:40 10° NNE
Cosmos 2219 Rocket 3.0 22:57:52 36° ENE 22:57:52 36° ENE 23:01:32 10° NE
ATLAS 2AS CENTAUR R/B 3.7 22:49:50 10° SW 22:57:27 56° NW 23:05:27 10° NNE
DMSP B5D2-2 3.9 22:52:40 10° NNE 22:57:49 77° E 22:57:49 77° E
Cosmos 1238 Rocket 4.3 22:51:43 10° NNW 22:58:26 67° W 23:00:28 44° SSW
Cosmos 1500 4.5 22:59:14 38° WNW 22:59:14 38° WNW 23:02:52 10° N
COSMOS 2428 2.6 23:04:15 75° SSW 23:04:47 90° ESE 23:10:33 10° NNE
NOSS 3-4 (A) 4.4 23:10:01 34° ENE 23:10:01 34° ENE 23:13:53 10° NE
NOSS 3-4 (C) 4.4 23:10:10 33° ENE 23:10:10 33° ENE 23:13:59 10° NE
Cosmos 2360 Rocket 3.5 23:04:51 10° SW 23:10:05 39° WNW 23:15:21 10° N
Cosmos 1437 Rocket 4.5 23:12:14 30° N 23:12:14 30° N 23:14:19 10° N
Cosmos 1354 Rocket 4.1 23:06:56 10° NNW 23:11:50 67° NNE 23:11:50 67° NNE
CARTOSAT-1 4.4 23:13:35 48° N 23:13:35 48° N 23:16:46 10° NNW
SPOT 1/Viking Rocket 4.1 23:12:34 48° WSW 23:13:01 50° W 23:18:06 10° NNW
CENTAUR R/B 4.1 23:07:06 10° NNW 23:14:01 34° NE 23:17:28 25° E
Cosmos 1818 3.9 23:15:58 57° NE 23:15:58 57° NE 23:20:18 10° NE
Cosmos 1844 3.6 23:09:23 10° NNW 23:14:57 80° NE 23:14:57 80° NE
SPOT 5 4.1 23:14:37 33° WSW 23:15:06 34° W 23:19:25 10° NNW
Cosmos 2333 Rocket 3.1 23:20:18 38° NE 23:20:18 38° NE 23:23:53 10° NNE
Lacrosse 5 3.4 23:20:21 10° W 23:25:00 35° NNW 23:29:40 10° NE
H-2A R/B 3.4 23:27:11 35° N 23:27:11 35° N 23:29:53 10° N
Cosmos 2333 4.4 23:26:46 63° W 23:27:14 66° WNW 23:32:51 10° NNE
Cosmos 1503 Rocket 4.4 23:29:18 10° NNW 23:33:53 62° NW 23:33:53 62° NW
Cosmos 2237 Rocket 3.4 23:42:17 32° NE 23:42:17 32° NE 23:45:22 10° NNE
BREEZE-M DEB (TANK) 4.4 23:30:52 10° WSW 23:49:13 62° NNW 23:52:19 25° NE
H-2A R/B 3.9 23:51:08 20° W 23:51:20 20° W 23:55:00 10° NW
